User: anonymous   Login
Location: Unspecified
(0.0000°N, 0.0000°E)
Time: 08:12:20
(UTC+02:00)
Language:

BREEZE-M DEB (TANK) - Orbit

View from above orbital plane
View from above orbital plane
View from above satellite
View from above satellite

Ground track
Ground track

The orbit data is extracted from the following two-line orbital elements,

1 33374U 08044B   16206.24175352  .00000381  00000-0  97343-4 0  9992
2 33374  49.4338 154.4945 5447185 247.4626  47.7560  4.86380878138036
Epoch (UTC): 24 July 2016 05:48:07
Eccentricity: 0.5447185
inclination: 49.4338°
perigee height: 321 km
apogee height: 16352 km
right ascension of ascending node: 154.4945°
argument of perigee: 247.4626°
revolutions per day: 4.86380878
mean anomaly at epoch: 47.7560°
orbit number at epoch: 13803

The dashed part of the orbit path shows where the satellite is in the earth's shadow,  

DLR